This is the latest recevied weather packets stored in our database for station/object PA1CD-13. If no packets are shown the sender has not sent any weather packets the latest 10 day(s).
| Time | Temp. | Humidity | Pressure | Rain* | Wind** | Luminosity | Snow |
|---|---|---|---|---|---|---|---|
| 1778311265 | 15° C | 53% | 1018.9 hPa | 0 mm | - | 438 W/m² | - |
| 1778311146 | 15° C | 52% | 1018.9 hPa | 0 mm | - | 431 W/m² | - |
| 1778311025 | 14.44° C | 51% | 1018.9 hPa | 0 mm | - | 431 W/m² | - |
| 1778310905 | 14.44° C | 51% | 1019 hPa | 0 mm | - | 424 W/m² | - |
| 1778310787 | 14.44° C | 50% | 1019 hPa | 0 mm | - | 417 W/m² | - |
| 1778310666 | 14.44° C | 49% | 1019 hPa | 0 mm | - | 417 W/m² | - |
| 1778310545 | 14.44° C | 48% | 1019 hPa | 0 mm | - | 410 W/m² | - |
| 1778310426 | 14.44° C | 46% | 1019 hPa | 0 mm | - | 396 W/m² | - |
| 1778310305 | 13.89° C | 43% | 1019.1 hPa | 0 mm | - | 396 W/m² | - |
| 1778310185 | 13.89° C | 43% | 1019 hPa | 0 mm | - | 396 W/m² | - |
| 1778310066 | 13.89° C | 36% | 1019.1 hPa | 0 mm | - | 383 W/m² | - |
| 1778309946 | 13.89° C | 33% | 1019 hPa | 0 mm | - | 383 W/m² | - |
| 1778309826 | 13.33° C | 33% | 1019 hPa | 0 mm | - | 373 W/m² | - |
| 1778309706 | 13.33° C | 30% | 1018.9 hPa | 0 mm | - | 373 W/m² | - |
| 1778309585 | 13.33° C | 30% | 1019 hPa | 0 mm | - | 371 W/m² | - |
| 1778309466 | 13.33° C | 23% | 1019 hPa | 0 mm | - | 355 W/m² | - |
| 1778309346 | 13.33° C | 17% | 1018.9 hPa | 0 mm | - | 362 W/m² | - |
| 1778309225 | 13.33° C | 17% | 1019 hPa | 0 mm | - | 355 W/m² | - |
| 1778309107 | 12.78° C | 13% | 1019 hPa | 0 mm | - | 352 W/m² | - |
| 1778308985 | 12.78° C | 8% | 1019 hPa | 0 mm | - | 345 W/m² | - |
| 1778308865 | 12.78° C | 4% | 1019.1 hPa | 0 mm | - | 336 W/m² | - |
| 1778308746 | 12.78° C | 1% | 1019.1 hPa | 0 mm | - | 336 W/m² | - |
| 1778308625 | 12.78° C | 1% | 1019.1 hPa | 0 mm | - | 331 W/m² | - |
| 1778308506 | 12.22° C | 1% | 1019.1 hPa | 0 mm | - | 324 W/m² | - |
| 1778308385 | 12.22° C | 1% | 1019.1 hPa | 0 mm | - | 322 W/m² | - |
* Rain latest hour (hover to see other rain measurements)
** Current wind speed in m/s (hover to see current wind gust speed)